Skip Page Navigation
NASA JPL Caltech
NASA Logo - Jet Propulsion Laboratory + View the NASA Portal
+ Center for Near-Earth Object Studies
JPL Home Earth Solar System Stars & Galaxies Technology
JPL Solar System Dynamics
BODIES ORBITS EPHEMERIDES TOOLS PHYSICAL DATA DISCOVERY FAQ SITE MAP
JPL Small-Body Database Browser
Search: [ help ]  
(2016 GS2)
Classification: Apollo [NEO]          SPK-ID: 3749066
Ephemeris | Orbit Diagram | Orbital Elements | Mission Design | Physical Parameters | Close-Approach Data ]

[ hide orbit diagram ]

For accurate long-term ephemerides, please instead use our Horizons system.This orbit viewer was implemented using two-body methods, and hence should not be used for determining accurate long-term trajectories (over several years or decades) or planetary encounter circumstances.


Orbital Elements at Epoch 2459396.5 (2021-Jul-01.0) TDB
Reference: JPL 48 (heliocentric ecliptic J2000)
 Element Value Uncertainty (1-sigma)   Units 
e .3165647141524586 1.9298e-07  
a 1.335595062209977 2.9933e-07 au
q .9127927931180402 6.8888e-08 au
i 3.859505370970985 5.3093e-06 deg
node 63.83164636007937 2.3695e-05 deg
peri 226.0577596370462 2.4344e-05 deg
M 86.68941043764612 0.00040044 deg
tp 2459260.739264349202
(2021-Feb-15.23926435)
0.00058148 TDB
period 563.7812575671074
1.54
0.00018953
5.189e-07
d
yr
n .6385455265992924 2.1466e-07 deg/d
Q 1.758397331301913 3.9408e-07 au
  Orbit Determination Parameters
   # obs. used (total)      400  
   # delay obs. used      1  
   # Doppler obs. used      0  
   data-arc span      213 days  
   first obs. used      2016-03-31  
   last obs. used      2016-10-30  
   planetary ephem.      DE441  
   SB-pert. ephem.      SB441-N16  
   condition code      2  
   norm. resid. RMS      .32896  
   source      ORB  
   producer      Otto Matic  
   solution date      2021-Apr-15 16:50:32  

Additional Information
 Earth MOID = .00831426 au 
 Jupiter MOID = 3.41802 au 
 T_jup = 4.855 
[ show covariance matrix ]

Ephemeris | Orbit Diagram | Orbital Elements | Mission Design | Physical Parameters | Close-Approach Data ]

Physical Parameter Table
Parameter Symbol Value Units Sigma Reference Notes
absolute magnitude H 23.0   n/a E2016-UA7  
rotation period rot_per 0.01266 h n/a LCDB (Rev. 2020-October); Warner et al., 2009 Published Reference List:
[Ryan, W. (2016) http://infohost.nmt.edu/~bryan/research/work/mro_images/k16g02s/k16 g02s_160510.jpg]

[ show close-approach data ]
Ephemeris | Orbit Diagram | Orbital Elements | Mission Design | Physical Parameters | Close-Approach Data ]
ABOUT SSD CREDITS/AWARDS PRIVACY/COPYRIGHT GLOSSARY LINKS
FirstGov 2021-Jul-23 20:05 UT
(server date/time)  
NASA Home Page
Site Manager:   Ryan S. Park
Webmaster  Alan B. Chamberlin